Regional Weather Roundup
Issued by NWS

Home | Current Version | Previous Version | Text Only | Print | Product List | Glossary On
Versions: 1 2 3 4 5 6 7 8 9 10 11 12 13 14 15 16 17 18 19 20 21 22 23 24 25 26 27 28 29 30 31 32 33 34 35 36 37 38 39 40 41 42 43 44 45 46 47 48 49 50
000
ASUS45 KABQ 281801
RWRNM
NEW MEXICO REGIONAL WEATHER ROUNDUP
NATIONAL WEATHER SERVICE ALBUQUERQUE NM
1100 AM MST TUE FEB 28 2017

NOTE: "FAIR" MEANS FEW OR NO CLOUDS BELOW 12,000 FEET AGL WITH NO
       SIGNIFICANT WEATHER OR OBSTRUCTIONS TO VISION.

      THIS PRODUCT IS RELEASED AS TWO VERSIONS.  ONE VERSION NEAR
      THE TOP OF THE HOUR CONTAINING PRELIMINARY DATA FROM ALBUQUERQUE
      AND OTHER STATIONS.  A FINAL VERSION WITH ADDITIONAL DATA IS
      ISSUED ABOUT 10 MINUTES AFTER THE HOUR.

NMZ501-503-504-510>518-281900-
NORTHWEST PLATEAU/NORTHCENTRAL MOUNTAINS

CITY           SKY/WX    TMP DP  RH WIND       PRES   REMARKS
FARMINGTON     PTSUNNY   35  31  85 W5        29.83R WCI  31
6HR MIN TEMP:  31; 6HR MAX TEMP:  35; 6HR PCP:  0.16;

LOS ALAMOS     MIX PCPN  33  33 100 S13G21    29.82S WCI  24
SANTA FE       CLOUDY    44  25  47 W25G37    29.81R
6HR MIN TEMP:  41; 6HR MAX TEMP:  46; 6HR PCP: TRACE;

TAOS             N/A     34  25  69 SW14G20   29.80R WCI  24
ANGEL FIRE     SNOW      31  26  84 SW14G32   29.78R VSB 1/2 WCI  20

$$
NMZ402-403-502-505>509-281900-
WESTCENTRAL MOUNTAINS/SOUTHWEST MOUNTAINS

CITY           SKY/WX    TMP DP  RH WIND       PRES   REMARKS
GALLUP         LGT SNOW  33  32  96 SW12      29.89R VSB 1   WCI  24
6HR MIN TEMP:  33; 6HR MAX TEMP:  36; 6HR PCP:  0.18;

GRANTS         LGT SNOW  35  32  90 SW9       29.90R WCI  28
SILVER CITY    CLOUDY    51  18  27 W25G35    30.00S

$$
NMZ407-409-411-412-281900-
SOUTHERN DESERTS

CITY           SKY/WX    TMP DP  RH WIND       PRES   REMARKS
DEMING         PTSUNNY   62  13  14 W32G49    29.96R HAZE
6HR MIN TEMP:  53; 6HR MAX TEMP:  63;

LAS CRUCES     FAIR      66  13  13 SW35G48   29.94S
HOLLOMAN AFB   SUNNY     68  17  14 SW31G38   29.94S
ALAMOGORDO     FAIR      68  16  13 SW25G40   29.92S
T OR C         FAIR      58  17  20 SW33G51   29.91R
6HR MIN TEMP:  50; 6HR MAX TEMP:  60;


$$
NMZ519>523-281900-
CENTRAL VALLEYS/CENTRAL HIGHLANDS

CITY           SKY/WX    TMP DP  RH WIND       PRES   REMARKS
ALBUQUERQUE    FAIR      57  12  17 SW36G47   29.78F
6HR MIN TEMP:  46; 6HR MAX TEMP:  57;

DOUBLE EAGLE   MOSUNNY   54  21  28 SW40G47   29.80R
MORIARTY ARPT  FAIR      57  11  16 SW39G52   29.80S
6HR MIN TEMP:  44; 6HR MAX TEMP:  58;

CLINES CORNERS PTSUNNY   52   8  17 W47G64    29.79F
6HR MIN TEMP:  39; 6HR MAX TEMP:  52;

BELEN          FAIR      58  11  16 SW40G49   29.79S
6HR MIN TEMP:  45; 6HR MAX TEMP:  58;

SOCORRO        FAIR      61  13  15 SW33G45   29.84R
6HR MIN TEMP:  47; 6HR MAX TEMP:  61;


$$
NMZ524>526-539-540-281900-
SOUTHCENTRAL MOUNTAINS

CITY           SKY/WX    TMP DP  RH WIND       PRES   REMARKS
RUIDOSO        NOT AVBL

$$
NMZ527>531-281900-
NORTHEAST HIGHLANDS/NORTHEAST PLAINS

CITY           SKY/WX    TMP DP  RH WIND       PRES   REMARKS
LAS VEGAS      CLOUDY    44  23  43 W37G47    29.78R
6HR MIN TEMP:  37; 6HR MAX TEMP:  49; 6HR PCP:  0.01;

RATON          FAIR      51  24  34 SW31G43   29.67S
6HR MIN TEMP:  27; 6HR MAX TEMP:  52;

CLAYTON        FAIR      62  23  22 SW31G45   29.64F
6HR MIN TEMP:  46; 6HR MAX TEMP:  63;


$$
NMZ532>537-281900-
EASTCENTRAL PLAINS

CITY           SKY/WX    TMP DP  RH WIND       PRES   REMARKS
TUCUMCARI      FAIR      70  13  11 SW43G56   29.70F
6HR MIN TEMP:  53; 6HR MAX TEMP:  70;

CANNON AFB     FAIR      65  16  15 SW33G52   29.76F
6HR MIN TEMP:  52; 6HR MAX TEMP:  65;

CLOVIS AIRPORT FAIR      63  23  22 SW29G36   29.78F

$$
NMZ028-029-538-281900-
SOUTHEAST PLAINS

CITY           SKY/WX    TMP DP  RH WIND       PRES   REMARKS
ROSWELL        FAIR      75  14  10 SW37G55     N/A
6HR MIN TEMP:  53; 6HR MAX TEMP:  75;

ARTESIA        FAIR      72  19  14 SW29G38   29.86F
CARLSBAD       FAIR      72  18  13 SW23G33   29.87F
6HR MIN TEMP:  50; 6HR MAX TEMP:  73;

HOBBS          SUNNY     73  16  11 SW31G40   29.90F


$$




USA.gov is the U.S. government's official web portal to all federal, state and local government web resources and services.